Location: Bégole
(43.1574°N, 0.3291°E)
Time: 13:30:28
(UTC+00:00)

Cosmos 1553 Rocket - Pass Details

Date: 28 January 2023
Orbit: 942 x 1007 km, 82.9° (Epoch: 19 March)

Event Time Altitude Azimuth Distance (km) Brightness Sun altitude
Rises 18:52:01 0° 167° (SSE) 3,592 6.9 -19.5°
Reaches altitude 10° 18:54:34 10° 161° (SSE) 2,652 6.2 -20.0°
Maximum altitude 19:00:17 46° 90° (E) 1,250 4.1 -21.0°
Drops below altitude 10° 19:06:05 10° 19° (NNE) 2,686 6.1 -22.1°
Sets 19:08:40 0° 14° (NNE) 3,644 6.8 -22.5°
